Temp
93 93 93 93 95 96 96 97 98 96 95 96 95 94 91 86 81 81 82 83 87 91 95 91 89 96 94 91 94 94 94 93 91 94 91 92 92 82 77 77 78 78 79 79 80 81 81 82 82 82 82 82 82 83 83 83 83 82 82 82 82 83 83 83 81 80 80 79 79 79 79 79 79 79
93 94 94 94 94 96 96 97 98 96 94 95 95 94 94 91 85 83 80 82 90 90 94 95 90 90 93 93 92 96 95 85 91 94 94 92 92 80 76 78 77 77 77 78 78 79 80 81 81 82 82 82 82 82 82 83 83 83 82 83 83 84 84 82 81 80 80 79 79 79 79 79 78 78
94 92 92 93 95 96 97 96 97 97 96 96 96 95 95 92 90 85 84 80 87 94 89 93 92 91 91 93 95 96 95 90 91 93 93 93 86 81 83 77 78 77 76 77 77 78 79 80 81 81 82 82 81 82 82 82 82 83 83 83 83 84 83 81 80 80 80 79 79 79 79 78 78 78
93 92 92 91 92 93 94 95 97 97 96 97 96 96 94 92 92 88 85 82 82 91 93 93 95 94 93 92 94 95 94 90 82 93 93 92 82 88 92 79 76 77 76 76 76 76 77 79 80 81 81 81 81 82 82 82 82 82 83 83 83 83 81 80 80 80 79 79 79 79 78 78 78 78
93 91 90 91 92 93 94 94 96 97 98 97 96 95 94 94 93 90 85 83 83 88 94 94 93 94 96 94 94 93 93 91 93 88 93 93 94 93 93 93 77 76 76 76 75 75 75 76 78 80 80 81 81 81 81 81 81 82 82 82 82 81 80 80 80 79 79 79 79 78 78 78 78 78
91 91 89 90 93 93 93 94 95 96 97 97 95 95 94 94 93 93 89 87 85 84 89 90 93 93 94 91 95 91 90 90 92 92 91 93 92 91 93 93 93 74 76 75 74 75 74 75 76 77 78 79 80 80 81 81 80 80 80 80 79 78 78 79 79 79 79 79 79 78 78 78 78 78
89 90 89 90 91 94 93 93 94 96 96 96 95 94 95 93 93 92 91 87 85 85 87 90 91 91 90 89 89 89 90 89 89 89 92 92 92 93 93 92 94 74 75 74 74 74 73 74 74 75 75 77 78 78 79 78 77 76 77 76 76 76 77 77 77 78 79 79 79 78 78 78 78 78
87 88 88 90 91 92 90 90 92 93 94 93 92 93 93 93 93 92 92 89 86 87 85 87 89 91 89 89 90 90 89 88 88 89 90 87 89 93 93 93 94 83 73 74 74 73 73 72 72 72 73 75 75 75 73 74 74 74 74 74 74 74 75 74 74 75 76 77 77 77 78 78 78 77
86 86 87 88 90 90 89 90 91 92 92 91 91 92 93 92 93 93 91 89 88 85 84 86 89 90 89 89 89 89 89 89 88 88 87 88 89 89 92 92 91 78 71 73 72 73 73 72 71 71 71 71 72 71 71 71 72 71 71 71 71 71 72 71 71 71 72 73 73 74 74 75 74 74
86 86 87 88 87 88 85 85 85 86 86 89 89 90 91 91 92 89 89 89 87 86 85 85 86 87 87 87 87 88 88 88 88 88 88 88 88 89 91 91 89 91 90 90 87 76 73 70 68 71 71 70 70 70 70 69 69 69 69 69 69 69 69 69 69 69 69 70 70 70 71 71 72 72
85 85 85 87 87 86 87 87 86 87 86 85 87 89 89 90 89 89 88 87 86 85 86 86 87 86 87 86 84 87 87 87 87 85 86 87 88 86 87 88 90 90 91 85 79 83 82 78 80 72 69 70 70 70 70 69 69 69 67 66 67 67 68 68 68 68 67 67 67 66 66 68 69 70
85 83 82 87 87 86 86 86 86 88 87 88 88 90 89 88 88 88 90 86 85 84 85 86 86 86 84 85 86 87 86 85 85 87 86 84 85 85 86 88 88 89 89 89 91 82 81 78 74 71 70 70 70 70 70 69 70 69 68 67 66 67 67 67 68 67 66 66 65 64 63 63 65 67
82 82 86 89 90 88 84 83 84 86 87 88 87 86 87 86 86 86 86 86 84 83 84 84 85 84 83 85 84 84 84 83 83 86 86 84 86 87 87 86 88 89 89 91 92 92 91 88 88 86 86 83 74 73 71 75 70 70 69 67 67 67 66 66 66 66 66 65 65 64 63 61 60 62
85 87 88 88 84 83 83 83 82 81 82 83 87 88 86 85 84 84 84 84 84 83 82 84 84 83 83 85 84 84 85 85 86 84 83 82 84 85 84 85 87 88 88 88 87 89 92 92 90 89 88 88 82 87 82 86 83 74 68 68 67 66 66 65 65 64 64 64 64 63 63 61 60 60
77 86 87 88 86 83 83 84 81 81 80 80 80 81 83 85 84 84 83 84 84 83 80 80 84 84 83 85 86 86 87 87 85 84 83 82 82 81 79 78 84 87 86 84 84 85 90 90 87 87 87 88 88 89 82 69 69 69 67 67 66 66 66 65 65 64 63 63 62 62 61 61 61 59
76 81 86 87 88 87 86 86 85 82 79 78 79 78 79 80 80 82 84 84 83 83 82 80 79 82 81 84 85 86 87 86 86 84 83 81 80 79 79 79 76 80 85 84 83 84 87 87 87 86 86 86 88 80 71 68 68 67 66 66 66 66 66 65 65 65 64 63 63 62 61 61 61 60
79 79 79 85 87 87 82 84 86 85 84 78 77 78 78 78 78 76 75 79 85 85 82 81 79 78 78 77 82 87 86 87 84 82 80 79 77 77 74 76 74 77 84 84 82 79 86 87 85 85 84 85 87 81 69 65 67 66 66 65 65 65 65 65 64 64 64 63 62 62 61 61 61 59
81 79 77 76 80 87 86 86 86 86 86 85 82 81 82 83 81 77 76 76 78 82 84 82 80 80 79 76 78 84 86 84 82 82 80 79 74 73 75 79 80 82 83 82 81 78 77 84 86 84 86 86 85 81 66 65 65 66 64 65 64 64 65 64 64 64 63 62 62 61 60 60 60 59
80 80 79 78 77 81 85 86 85 86 85 85 85 84 83 83 84 84 84 83 84 84 84 83 82 80 79 79 80 80 86 85 84 84 82 82 79 78 77 77 77 79 83 81 78 72 78 80 77 81 83 83 83 80 67 64 64 63 63 63 63 63 64 64 64 63 62 62 61 60 60 60 59 59
78 78 78 78 78 80 84 82 79 82 86 85 84 84 84 84 85 85 84 78 80 85 85 85 83 83 82 78 79 81 86 86 84 83 83 82 79 77 75 73 76 75 79 80 75 76 78 79 76 76 77 84 84 81 76 64 63 63 63 63 62 63 63 63 62 62 62 62 61 60 59 59 59 59
78 78 78 77 78 81 84 80 71 72 79 84 84 83 84 84 84 83 85 76 73 74 74 74 75 75 73 72 71 69 71 81 83 82 78 77 79 75 73 74 75 76 78 78 79 75 74 77 76 74 80 83 84 83 79 73 62 62 62 62 62 62 62 62 62 62 62 61 61 60 59 58 58 58
77 79 74 76 81 82 83 75 69 68 78 81 81 82 82 82 82 83 85 86 81 71 70 69 70 70 71 72 71 71 70 71 79 80 77 79 76 72 73 74 77 79 78 76 78 72 72 74 76 78 82 82 82 83 78 72 66 61 62 60 61 62 61 62 61 62 61 61 61 60 58 58 58 65
78 76 76 75 77 77 76 68 67 65 76 80 80 79 79 78 79 81 84 83 82 81 81 81 80 78 76 79 81 81 72 74 78 81 80 80 77 74 76 76 76 75 77 79 80 73 75 78 82 81 79 75 81 82 79 76 74 73 72 69 66 61 62 61 61 60 60 60 59 58 58 58 57 74
76 76 76 78 71 68 67 65 64 63 65 77 80 78 74 74 76 83 84 84 84 81 80 82 82 80 82 82 81 82 81 79 79 80 82 81 78 77 76 77 77 75 76 77 79 75 78 78 78 83 82 78 76 78 79 78 75 75 75 73 70 62 62 60 59 57 58 59 57 57 56 58 58 76
76 75 75 76 74 64 64 63 61 60 60 68 79 77 74 76 79 81 80 77 76 79 81 77 77 81 81 80 80 81 81 80 80 79 80 81 82 80 78 76 74 71 74 80 77 81 77 81 81 82 80 80 81 78 76 77 76 76 77 77 75 69 69 69 66 65 57 55 55 54 54 57 55 65
76 75 74 75 73 65 62 62 60 59 60 62 73 77 68 67 68 78 79 77 74 74 73 73 77 80 79 79 82 82 82 82 80 80 80 80 80 80 79 75 71 71 73 77 71 75 76 79 80 79 78 77 78 80 75 75 76 77 76 77 77 73 73 73 72 70 69 69 67 62 65 56 58 56
74 77 75 75 72 63 59 58 58 58 58 64 69 63 62 63 64 72 77 76 74 72 71 72 73 76 77 77 77 80 82 83 81 80 80 80 80 79 77 75 78 78 80 78 76 78 80 79 80 78 77 78 76 76 76 73 72 74 73 74 75 75 75 76 74 74 75 75 75 58 57 56 55 58
74 75 75 75 62 60 55 55 57 58 61 68 61 59 61 63 67 73 74 73 74 74 73 71 71 74 75 78 78 80 83 84 82 81 80 80 80 80 80 79 75 79 82 81 79 81 81 79 77 78 78 76 75 76 74 78 77 76 74 75 76 77 77 76 76 75 75 76 75 71 73 73 71 68
73 69 62 59 61 60 57 55 57 59 61 57 58 59 61 68 74 73 71 72 74 72 72 73 73 74 77 80 79 78 79 82 80 79 80 80 79 78 76 77 77 80 81 83 82 82 80 78 77 78 77 77 76 76 78 74 75 75 75 75 74 76 76 77 77 76 75 75 75 75 75 76 75 76
65 61 60 59 59 61 62 67 69 70 70 64 61 61 64 71 75 76 75 73 72 72 74 76 76 77 78 78 77 78 80 78 76 78 77 76 73 72 73 75 76 80 81 82 83 81 80 78 77 77 76 77 79 77 78 77 76 78 77 77 76 75 77 78 78 77 76 74 75 75 76 78 78 76
68 67 67 68 65 65 66 67 68 69 71 71 72 74 73 71 71 73 75 76 75 74 73 74 78 79 79 78 76 76 75 74 75 76 73 74 74 73 73 73 73 75 78 80 82 81 80 78 78 78 74 76 78 78 77 77 75 76 77 78 76 73 74 77 76 75 76 75 76 75 76 77 78 77
72 73 72 69 70 71 70 71 73 74 75 75 74 75 76 76 74 73 74 75 77 77 77 76 75 75 76 76 76 75 74 74 72 72 71 74 75 75 75 72 71 72 74 76 78 78 77 78 77 77 77 77 75 75 77 76 76 77 76 76 78 81 80 78 76 76 76 76 76 76 76 78 79 80
74 72 72 73 72 72 73 73 74 75 74 74 74 75 76 76 75 74 73 71 73 75 74 73 73 72 71 72 73 72 72 71 71 72 72 73 73 73 74 71 70 70 71 72 75 76 77 77 78 78 77 78 78 77 76 73 75 78 77 76 78 79 81 81 78 76 77 76 77 79 76 79 82 83
72 72 71 72 73 74 74 74 74 74 74 74 73 73 70 71 72 73 72 73 73 75 73 74 74 75 73 71 70 71 70 71 71 71 70 72 72 70 69 69 70 73 73 73 74 75 75 75 76 77 77 77 80 78 78 78 77 79 80 81 80 79 80 82 81 79 78 79 79 78 78 78 80 81
71 73 72 74 74 74 75 74 75 75 74 73 72 71 71 71 71 71 71 73 74 72 72 74 74 74 73 71 70 70 70 71 71 71 71 70 70 69 69 70 71 72 72 73 73 74 75 73 74 73 72 73 74 76 70 72 79 78 79 79 81 80 80 82 81 80 79 78 80 76 77 77 75 76
73 74 75 76 76 75 74 74 75 75 74 73 73 72 70 69 71 72 73 74 76 74 75 72 73 73 73 72 71 70 70 69 69 69 69 69 68 69 70 72 71 72 74 74 74 75 75 74 73 72 71 72 73 72 75 64 63 75 78 78 80 80 81 79 80 80 79 80 78 77 75 73 74 74
74 76 76 77 77 76 76 75 75 75 75 75 74 73 72 69 68 68 71 73 73 74 74 73 73 74 73 72 70 68 69 69 69 68 68 69 69 70 70 71 71 73 75 76 76 75 75 74 74 74 74 75 75 74 73 78 66 61 71 78 78 80 78 78 77 78 80 79 77 77 75 74 72 75
75 76 75 76 76 77 77 76 76 76 76 76 74 74 75 74 69 67 69 70 70 71 71 71 70 70 70 69 68 68 68 69 69 68 68 69 70 71 72 72 73 74 75 75 75 74 75 75 75 76 78 76 76 74 72 75 76 70 56 68 78 77 78 78 77 76 75 78 77 76 78 76 72 70
75 74 75 76 77 77 77 77 77 77 79 79 76 74 76 76 71 70 71 70 69 69 69 69 68 69 68 69 68 68 68 68 68 69 70 71 72 72 72 73 73 74 74 73 74 74 75 76 77 79 79 79 78 77 76 75 72 71 63 53 66 76 78 76 76 77 77 76 76 75 72 70 67 60
76 77 77 78 78 78 77 77 77 78 79 79 78 77 76 75 75 74 71 70 69 69 69 68 68 68 69 70 69 69 69 69 70 70 71 72 72 73 74 74 74 73 73 73 73 74 76 77 78 79 80 79 78 81 81 77 73 73 70 61 52 61 67 74 75 76 76 77 78 75 69 68 67 69
76 76 77 78 78 78 78 77 78 78 78 78 78 77 77 76 76 75 73 72 71 70 69 68 69 69 69 70 71 72 70 70 71 73 74 73 72 73 73 72 73 73 73 72 74 76 77 80 77 72 80 79 79 80 77 73 71 70 68 66 57 55 56 60 68 71 72 73 76 75 73 71 68 69
70 74 78 80 79 78 78 77 78 78 77 78 78 77 76 75 75 73 73 71 73 73 72 71 71 71 71 73 73 72 72 72 73 74 74 75 74 73 72 74 75 75 76 75 76 78 80 78 78 79 79 78 77 75 73 73 72 69 67 67 66 59 56 55 55 56 62 66 71 72 72 70 70 70
74 77 79 79 78 77 77 77 77 78 79 80 79 78 78 77 76 75 76 74 74 75 76 75 75 75 75 76 75 75 75 75 75 76 76 76 76 75 74 75 76 77 78 79 80 80 78 79 79 78 78 77 76 76 73 73 71 68 68 69 68 69 67 58 57 55 55 54 56 60 63 67 69 66
76 79 79 78 76 76 77 78 78 79 79 80 79 79 79 78 77 77 78 78 78 79 80 79 78 77 76 76 77 77 78 78 78 77 77 77 77 77 77 78 78 78 80 79 78 78 79 79 79 79 77 76 77 76 75 72 69 69 70 68 68 68 68 69 69 62 59 56 55 56 55 56 57 59
79 79 80 78 77 78 77 77 76 78 79 80 80 80 79 80 79 80 79 79 79 80 79 80 80 79 79 78 78 78 78 76 78 78 79 79 79 78 78 79 78 78 78 77 76 76 77 77 79 79 78 78 78 77 77 74 69 68 68 67 64 62 63 63 61 59 59 58 56 55 56 57 58 57
MSLP
1012.68 1012.80 1012.92 1013.08 1012.96 1012.84 1012.68 1012.68 1012.72 1012.88 1013.00 1013.12 1013.40 1013.64 1014.56 1015.28 1016.56 1016.96 1016.60 1015.88 1015.32 1014.08 1013.36 1014.28 1013.80 1012.96 1012.96 1013.36 1012.92 1013.04 1013.08 1012.72 1013.04 1013.16 1013.32 1013.28 1013.28 1013.56 1013.88 1014.12 1014.28 1014.40 1014.52 1014.60 1014.64 1014.72 1014.76 1014.84 1014.88 1014.92 1014.96 1015.04 1015.04 1015.08 1015.08 1015.12 1015.16 1015.24 1015.28 1015.32 1015.28 1015.32 1015.36 1015.40 1015.44 1015.48 1015.56 1015.60 1015.68 1015.72 1015.80 1015.84 1015.88 1015.88
1012.32 1012.36 1012.44 1012.60 1012.80 1012.44 1012.52 1012.52 1012.44 1012.60 1012.80 1013.00 1013.12 1013.24 1013.40 1013.92 1015.44 1015.84 1016.64 1016.16 1014.56 1014.40 1013.36 1013.20 1013.92 1013.44 1013.20 1013.00 1013.16 1012.76 1012.72 1012.76 1013.00 1012.92 1012.96 1013.08 1013.12 1013.32 1013.64 1013.80 1013.92 1014.04 1014.16 1014.24 1014.28 1014.36 1014.44 1014.48 1014.52 1014.60 1014.64 1014.68 1014.68 1014.72 1014.72 1014.76 1014.80 1014.84 1014.92 1014.92 1014.96 1015.00 1015.04 1015.08 1015.16 1015.20 1015.28 1015.36 1015.44 1015.56 1015.64 1015.68 1015.68 1015.68
1011.92 1012.20 1012.44 1012.36 1012.36 1012.08 1012.20 1012.24 1012.24 1012.36 1012.44 1012.60 1012.64 1012.76 1012.92 1013.40 1013.84 1014.76 1015.36 1016.44 1014.60 1013.52 1014.20 1013.40 1013.04 1013.36 1013.20 1012.96 1012.84 1012.60 1012.52 1012.64 1012.84 1012.88 1012.80 1012.80 1012.92 1013.16 1013.28 1013.48 1013.56 1013.72 1013.80 1013.88 1013.96 1014.04 1014.08 1014.16 1014.20 1014.24 1014.28 1014.32 1014.36 1014.36 1014.36 1014.44 1014.48 1014.52 1014.56 1014.60 1014.64 1014.68 1014.72 1014.80 1014.88 1014.96 1015.04 1015.16 1015.28 1015.40 1015.44 1015.52 1015.52 1015.52
1011.60 1011.88 1012.16 1012.24 1012.28 1012.20 1012.24 1012.20 1012.04 1012.12 1012.08 1012.12 1012.32 1012.44 1012.76 1013.00 1013.16 1013.72 1014.60 1015.40 1015.40 1013.56 1013.52 1013.20 1012.84 1012.68 1012.84 1012.80 1013.00 1012.72 1012.48 1012.48 1012.80 1012.76 1012.68 1012.52 1012.76 1012.92 1012.76 1012.92 1013.12 1013.28 1013.40 1013.56 1013.64 1013.76 1013.84 1013.88 1013.92 1013.96 1014.00 1014.00 1014.00 1014.00 1014.04 1014.08 1014.16 1014.20 1014.24 1014.32 1014.36 1014.36 1014.44 1014.52 1014.64 1014.76 1014.88 1015.00 1015.12 1015.20 1015.28 1015.32 1015.32 1015.36
1011.32 1011.56 1011.84 1011.88 1011.92 1011.88 1012.16 1012.12 1012.00 1011.84 1011.76 1011.88 1012.08 1012.12 1012.36 1012.76 1012.76 1013.32 1014.24 1014.96 1014.88 1013.72 1012.68 1012.88 1012.92 1012.44 1012.40 1012.72 1012.48 1012.84 1012.68 1012.68 1012.52 1012.64 1012.48 1012.40 1012.48 1012.40 1012.36 1012.20 1012.52 1012.80 1013.00 1013.12 1013.28 1013.40 1013.48 1013.60 1013.64 1013.68 1013.72 1013.68 1013.68 1013.68 1013.72 1013.76 1013.80 1013.88 1013.96 1014.04 1014.08 1014.12 1014.20 1014.32 1014.48 1014.60 1014.72 1014.80 1014.88 1014.96 1015.04 1015.08 1015.12 1015.16
1011.12 1011.20 1011.64 1011.80 1011.72 1011.60 1011.88 1011.88 1011.92 1011.80 1011.64 1011.72 1012.00 1012.04 1012.28 1012.52 1012.68 1012.40 1013.40 1014.00 1014.28 1014.56 1013.28 1013.24 1012.60 1012.64 1012.28 1013.12 1012.20 1012.76 1012.96 1012.84 1012.48 1012.60 1012.52 1012.32 1012.28 1012.36 1012.12 1012.00 1011.92 1012.40 1012.60 1012.76 1012.92 1013.04 1013.16 1013.24 1013.32 1013.36 1013.40 1013.40 1013.36 1013.40 1013.44 1013.52 1013.52 1013.60 1013.72 1013.76 1013.80 1013.88 1014.00 1014.20 1014.32 1014.36 1014.44 1014.52 1014.60 1014.68 1014.80 1014.88 1014.92 1014.92
1010.88 1011.16 1011.32 1011.48 1011.48 1011.36 1011.60 1011.68 1011.64 1011.52 1011.52 1011.48 1011.72 1011.92 1011.80 1012.20 1012.32 1012.28 1012.52 1013.40 1014.08 1014.08 1013.76 1012.88 1013.04 1012.80 1012.64 1013.00 1012.84 1012.56 1012.56 1012.60 1012.56 1012.76 1012.48 1012.24 1012.04 1011.92 1011.96 1011.96 1011.72 1012.12 1012.32 1012.52 1012.64 1012.76 1012.88 1012.96 1013.04 1013.08 1013.12 1013.12 1013.12 1013.16 1013.20 1013.24 1013.28 1013.36 1013.44 1013.52 1013.56 1013.68 1013.84 1014.00 1014.08 1014.08 1014.16 1014.20 1014.32 1014.40 1014.52 1014.60 1014.68 1014.72
1010.76 1010.92 1011.08 1011.08 1011.12 1011.12 1011.48 1011.56 1011.52 1011.40 1011.44 1011.52 1011.68 1011.72 1011.56 1011.80 1012.04 1012.08 1012.08 1012.52 1013.36 1013.44 1013.80 1013.08 1013.00 1012.56 1012.80 1012.64 1012.36 1012.28 1012.28 1012.52 1012.56 1012.44 1012.24 1012.28 1012.28 1011.84 1011.68 1011.72 1011.64 1011.72 1012.04 1012.24 1012.40 1012.52 1012.60 1012.68 1012.72 1012.80 1012.80 1012.84 1012.88 1012.92 1013.00 1013.04 1013.08 1013.16 1013.20 1013.28 1013.32 1013.48 1013.64 1013.72 1013.80 1013.92 1014.04 1014.12 1014.16 1014.16 1014.24 1014.36 1014.44 1014.52
1010.44 1010.56 1010.64 1010.72 1010.68 1010.84 1011.24 1011.24 1011.28 1011.16 1011.24 1011.32 1011.48 1011.56 1011.40 1011.60 1011.64 1011.76 1012.00 1012.24 1012.52 1013.24 1013.60 1013.20 1012.52 1012.32 1012.40 1012.24 1012.24 1012.16 1012.60 1012.44 1012.36 1012.28 1012.44 1012.24 1012.08 1011.96 1011.64 1011.56 1011.48 1011.80 1012.00 1012.12 1012.20 1012.28 1012.36 1012.44 1012.48 1012.52 1012.56 1012.56 1012.64 1012.72 1012.76 1012.84 1012.88 1012.96 1013.04 1013.04 1013.12 1013.28 1013.40 1013.48 1013.68 1013.80 1013.84 1013.96 1014.00 1014.04 1014.08 1014.16 1014.28 1014.36
1010.04 1010.16 1010.24 1010.24 1010.36 1010.64 1011.28 1011.48 1011.48 1011.36 1011.44 1011.24 1011.40 1011.52 1011.48 1011.40 1011.40 1011.80 1012.00 1012.04 1012.32 1012.68 1012.96 1012.96 1012.96 1012.40 1012.68 1012.56 1012.44 1012.08 1012.20 1012.56 1012.56 1012.32 1012.04 1011.92 1011.88 1011.96 1011.88 1011.52 1011.44 1011.40 1011.56 1011.72 1011.76 1011.96 1012.12 1012.12 1012.20 1012.24 1012.28 1012.36 1012.40 1012.48 1012.56 1012.64 1012.72 1012.80 1012.84 1012.84 1012.88 1013.08 1013.20 1013.36 1013.56 1013.64 1013.68 1013.72 1013.76 1013.88 1014.00 1014.08 1014.16 1014.24
1009.52 1009.80 1010.04 1010.00 1010.12 1010.40 1010.60 1010.88 1011.12 1011.04 1011.20 1011.64 1011.56 1011.16 1011.40 1011.40 1011.60 1011.76 1011.88 1012.04 1012.28 1012.52 1012.76 1012.60 1012.40 1012.48 1012.08 1012.28 1012.80 1012.04 1011.76 1012.00 1012.20 1012.64 1012.56 1012.40 1011.64 1011.76 1011.88 1011.92 1011.28 1011.20 1011.28 1011.16 1011.20 1011.16 1011.28 1011.48 1011.60 1011.76 1012.00 1012.08 1012.12 1012.20 1012.32 1012.40 1012.48 1012.56 1012.64 1012.64 1012.60 1012.88 1013.12 1013.16 1013.32 1013.36 1013.44 1013.52 1013.64 1013.80 1013.96 1014.04 1014.00 1014.08
1009.08 1009.52 1009.84 1009.60 1009.56 1009.76 1010.04 1010.44 1010.68 1010.68 1010.84 1010.72 1011.04 1010.88 1010.92 1011.16 1011.44 1011.60 1011.56 1011.76 1012.08 1012.36 1012.40 1012.48 1012.40 1012.16 1012.32 1012.12 1011.84 1011.68 1011.92 1012.40 1012.36 1011.96 1012.24 1012.76 1012.36 1011.96 1011.60 1011.44 1011.68 1011.24 1011.16 1011.24 1011.00 1011.00 1011.12 1011.32 1011.48 1011.56 1011.64 1011.76 1011.84 1011.92 1012.08 1012.16 1012.24 1012.36 1012.44 1012.48 1012.32 1012.40 1012.72 1012.76 1012.92 1013.08 1013.20 1013.36 1013.56 1013.68 1013.80 1013.88 1013.92 1013.96
1008.92 1009.04 1008.84 1008.72 1008.80 1009.00 1009.48 1009.76 1010.04 1010.08 1009.96 1010.24 1010.64 1010.68 1010.72 1010.92 1011.24 1011.44 1011.44 1011.60 1011.84 1012.08 1012.16 1012.24 1012.00 1012.20 1012.24 1012.04 1012.12 1012.24 1012.24 1012.44 1012.44 1011.72 1011.64 1012.08 1011.76 1011.52 1011.60 1011.32 1010.92 1011.00 1011.20 1010.96 1010.76 1010.56 1010.64 1011.00 1011.04 1011.16 1011.32 1011.28 1011.48 1011.68 1011.72 1011.72 1011.92 1012.04 1012.16 1012.28 1012.32 1012.20 1012.36 1012.56 1012.72 1012.88 1013.08 1013.28 1013.44 1013.56 1013.64 1013.72 1013.84 1013.92
1008.28 1008.08 1008.08 1008.08 1008.28 1008.60 1008.92 1009.24 1009.48 1009.68 1009.76 1009.80 1009.84 1010.00 1010.32 1010.64 1010.96 1011.16 1011.36 1011.52 1011.60 1011.88 1012.08 1012.00 1011.96 1012.16 1012.12 1011.84 1011.72 1011.84 1011.64 1011.32 1011.28 1011.68 1011.80 1012.24 1011.76 1011.60 1011.68 1011.36 1010.96 1010.60 1010.92 1011.12 1011.24 1010.80 1010.16 1010.52 1010.68 1010.68 1010.88 1010.60 1011.00 1011.00 1011.32 1011.20 1011.20 1011.52 1011.88 1012.08 1012.20 1012.28 1012.36 1012.56 1012.72 1012.88 1013.04 1013.20 1013.32 1013.40 1013.48 1013.60 1013.72 1013.80
1009.36 1008.08 1007.76 1007.64 1007.84 1008.24 1008.60 1008.84 1009.12 1009.32 1009.48 1009.60 1009.76 1009.76 1009.80 1009.92 1010.36 1010.72 1011.08 1011.08 1011.12 1011.44 1012.04 1012.04 1011.60 1011.64 1011.68 1011.36 1010.96 1011.12 1011.00 1010.96 1011.28 1011.48 1011.52 1011.76 1011.76 1012.08 1012.48 1012.84 1011.40 1010.36 1010.84 1011.28 1011.40 1011.16 1010.16 1010.20 1010.92 1010.72 1010.64 1010.40 1010.48 1010.40 1010.88 1011.12 1011.24 1011.44 1011.76 1012.00 1012.16 1012.24 1012.32 1012.44 1012.56 1012.68 1012.84 1012.96 1013.08 1013.24 1013.36 1013.48 1013.60 1013.72
1009.20 1008.48 1007.72 1007.48 1007.40 1007.60 1007.92 1008.20 1008.56 1008.88 1009.04 1009.24 1009.40 1009.52 1009.60 1009.68 1009.80 1009.76 1010.04 1010.56 1010.80 1010.88 1011.24 1011.60 1011.80 1011.52 1011.64 1011.20 1010.84 1010.80 1010.76 1010.92 1010.92 1011.04 1011.24 1011.56 1011.92 1012.16 1012.32 1012.32 1012.96 1011.84 1010.76 1011.28 1011.40 1011.16 1010.20 1010.20 1010.56 1010.76 1010.52 1010.40 1010.36 1010.80 1011.20 1011.32 1011.44 1011.60 1011.76 1011.88 1012.04 1012.16 1012.24 1012.36 1012.48 1012.60 1012.72 1012.88 1013.00 1013.16 1013.28 1013.40 1013.52 1013.68
1008.20 1008.12 1008.28 1007.56 1007.28 1007.20 1007.40 1007.72 1007.80 1008.04 1008.44 1008.80 1009.04 1009.16 1009.28 1009.36 1009.44 1009.60 1009.64 1009.56 1009.64 1009.72 1010.44 1010.88 1011.20 1011.36 1011.64 1012.04 1011.16 1010.28 1010.40 1010.20 1010.96 1011.00 1011.44 1011.68 1012.00 1012.28 1012.84 1012.20 1012.56 1012.28 1010.84 1010.92 1011.32 1011.60 1010.44 1010.08 1010.60 1010.72 1010.36 1010.28 1010.20 1010.72 1011.12 1011.48 1011.60 1011.68 1011.80 1011.88 1012.00 1012.08 1012.16 1012.28 1012.40 1012.52 1012.68 1012.80 1012.96 1013.08 1013.24 1013.40 1013.52 1013.60
1007.48 1007.68 1007.96 1008.36 1008.12 1007.16 1007.08 1007.16 1007.28 1007.48 1007.72 1008.04 1008.52 1008.88 1008.96 1008.96 1008.96 1009.16 1009.24 1009.28 1009.28 1009.24 1009.48 1009.92 1010.52 1010.36 1010.64 1011.40 1011.28 1010.40 1009.84 1010.44 1010.84 1010.96 1011.28 1011.32 1011.88 1012.20 1012.04 1011.44 1011.20 1010.84 1010.44 1010.96 1011.16 1011.72 1011.44 1010.40 1010.20 1010.48 1009.96 1009.84 1010.20 1010.76 1011.32 1011.52 1011.72 1011.80 1011.84 1011.88 1011.96 1012.04 1012.08 1012.16 1012.24 1012.36 1012.52 1012.68 1012.84 1013.00 1013.20 1013.36 1013.48 1013.60
1007.12 1007.20 1007.40 1007.68 1008.04 1007.64 1006.84 1006.68 1006.84 1007.00 1007.24 1007.48 1007.72 1008.04 1008.28 1008.32 1008.24 1008.28 1008.44 1008.60 1008.72 1008.88 1008.84 1009.00 1009.32 1009.64 1009.88 1010.28 1010.44 1010.68 1009.60 1009.72 1009.84 1010.00 1010.40 1010.52 1010.80 1011.00 1010.84 1010.92 1010.92 1010.68 1009.92 1010.36 1011.20 1012.72 1011.32 1010.52 1011.04 1010.60 1010.28 1010.24 1010.48 1010.68 1011.40 1011.76 1011.84 1011.88 1011.88 1011.92 1012.00 1012.04 1012.12 1012.20 1012.24 1012.36 1012.52 1012.68 1012.84 1013.04 1013.20 1013.32 1013.48 1013.56
1006.80 1006.92 1007.12 1007.32 1007.36 1007.24 1006.60 1006.44 1006.56 1006.68 1006.72 1007.04 1007.44 1007.60 1007.64 1007.68 1007.68 1007.60 1007.32 1007.48 1007.64 1007.76 1007.92 1008.12 1008.44 1008.76 1009.04 1009.32 1009.80 1009.92 1009.32 1009.28 1009.36 1009.60 1009.76 1009.96 1010.48 1011.00 1011.32 1011.52 1010.96 1011.00 1010.00 1010.00 1011.08 1011.68 1011.24 1010.64 1011.28 1011.04 1010.76 1010.12 1010.44 1010.56 1011.20 1011.80 1011.92 1011.96 1011.96 1012.00 1012.08 1012.12 1012.20 1012.24 1012.32 1012.40 1012.52 1012.68 1012.88 1013.04 1013.20 1013.32 1013.44 1013.56
1006.52 1006.76 1007.00 1007.16 1007.20 1006.72 1006.40 1006.28 1006.52 1006.76 1006.96 1007.12 1007.24 1007.32 1007.40 1007.32 1007.36 1007.36 1006.96 1007.04 1007.28 1007.44 1007.48 1007.60 1007.80 1008.08 1008.44 1008.80 1008.96 1009.04 1009.08 1009.12 1009.24 1009.68 1010.44 1010.84 1010.56 1011.24 1011.76 1011.40 1011.08 1010.80 1010.12 1010.00 1010.32 1011.32 1011.68 1010.84 1011.16 1011.52 1010.60 1010.24 1010.32 1010.52 1010.96 1011.48 1012.00 1012.12 1012.12 1012.16 1012.24 1012.24 1012.24 1012.32 1012.36 1012.52 1012.68 1012.80 1012.96 1013.12 1013.24 1013.36 1013.40 1013.48
1006.32 1006.36 1006.88 1006.96 1006.52 1006.24 1006.08 1006.12 1006.72 1006.92 1006.96 1007.28 1007.28 1007.28 1007.32 1007.44 1007.44 1007.12 1006.76 1006.80 1007.08 1007.24 1007.44 1007.60 1007.76 1007.96 1008.16 1008.36 1008.52 1008.68 1008.84 1009.00 1009.04 1009.76 1010.64 1010.28 1010.68 1011.36 1011.32 1011.36 1010.72 1010.28 1010.16 1010.20 1010.12 1011.60 1011.56 1011.32 1011.00 1010.88 1010.08 1010.32 1010.44 1010.44 1010.96 1011.56 1011.88 1012.16 1012.28 1012.40 1012.36 1012.40 1012.40 1012.44 1012.56 1012.68 1012.84 1013.04 1013.16 1013.28 1013.36 1013.40 1013.44 1013.36
1006.16 1006.40 1006.40 1006.20 1006.12 1006.36 1006.52 1006.48 1006.56 1006.72 1006.80 1006.92 1007.12 1007.40 1007.56 1007.72 1007.52 1006.96 1006.68 1006.84 1007.08 1007.36 1007.64 1007.72 1007.80 1007.96 1008.00 1008.08 1008.20 1008.32 1008.60 1008.72 1008.84 1008.92 1009.36 1009.56 1010.20 1010.84 1010.60 1010.64 1010.60 1010.92 1010.24 1009.60 1009.60 1011.28 1011.08 1010.80 1010.00 1010.20 1010.76 1011.60 1010.60 1010.36 1010.92 1011.36 1011.60 1011.80 1012.12 1012.32 1012.44 1012.56 1012.60 1012.68 1012.72 1012.80 1012.96 1013.12 1013.28 1013.36 1013.40 1013.40 1013.48 1012.88
1005.84 1005.92 1006.00 1005.72 1005.84 1005.88 1006.00 1006.16 1006.32 1006.60 1006.68 1006.84 1006.76 1007.12 1007.80 1008.04 1007.76 1006.60 1006.64 1006.56 1006.72 1007.20 1007.40 1007.32 1007.32 1007.48 1007.40 1007.56 1007.76 1007.92 1008.16 1008.44 1008.52 1008.60 1008.72 1009.00 1009.60 1009.96 1010.16 1010.24 1010.40 1010.80 1010.32 1009.28 1009.12 1010.56 1010.40 1010.48 1010.40 1009.64 1010.20 1011.16 1011.76 1011.20 1010.80 1011.16 1011.44 1011.60 1011.76 1012.04 1012.36 1012.72 1012.76 1012.84 1012.96 1013.04 1013.04 1013.12 1013.28 1013.36 1013.36 1013.28 1013.28 1012.76
1005.72 1005.68 1005.80 1005.72 1005.68 1005.92 1005.80 1005.88 1006.12 1006.32 1006.52 1006.60 1006.56 1006.68 1007.12 1007.04 1006.72 1006.52 1006.92 1007.24 1007.48 1007.28 1007.08 1007.76 1007.76 1007.24 1007.24 1007.44 1007.52 1007.64 1007.72 1007.88 1008.08 1008.20 1008.28 1008.44 1008.60 1009.08 1009.68 1010.16 1010.44 1010.72 1010.20 1009.36 1009.04 1009.64 1010.52 1009.84 1010.00 1009.92 1010.28 1010.44 1010.48 1011.04 1011.28 1011.28 1011.40 1011.52 1011.48 1011.56 1011.96 1012.44 1012.56 1012.68 1012.84 1013.08 1013.32 1013.36 1013.32 1013.32 1013.36 1013.36 1013.36 1013.12
1005.44 1005.48 1005.60 1005.76 1005.60 1005.64 1005.64 1005.68 1005.88 1006.12 1006.32 1006.40 1006.52 1006.28 1006.28 1006.48 1006.80 1006.72 1006.76 1007.08 1007.48 1007.44 1007.56 1007.80 1007.44 1007.08 1007.28 1007.32 1007.20 1007.20 1007.32 1007.40 1007.60 1007.76 1007.92 1008.08 1008.28 1008.48 1008.80 1009.48 1010.24 1010.64 1010.48 1009.40 1009.40 1010.20 1010.44 1010.40 1010.16 1010.40 1010.60 1010.96 1010.84 1010.52 1011.48 1011.64 1011.44 1011.36 1011.52 1011.48 1011.60 1011.96 1012.20 1012.36 1012.52 1012.72 1012.96 1013.04 1013.20 1013.28 1013.28 1013.40 1013.40 1013.36
1005.28 1005.12 1005.52 1005.60 1005.72 1005.76 1005.56 1005.56 1005.72 1005.92 1006.12 1006.36 1006.28 1006.16 1006.36 1006.48 1006.56 1006.64 1006.68 1006.80 1007.08 1007.32 1007.64 1007.68 1007.52 1007.12 1006.96 1007.16 1007.16 1007.04 1007.08 1006.92 1007.16 1007.40 1007.56 1007.84 1008.04 1008.24 1008.56 1008.92 1009.08 1009.36 1009.36 1009.32 1009.44 1009.68 1009.88 1010.24 1009.96 1010.52 1010.80 1010.68 1011.04 1011.20 1011.16 1011.88 1012.04 1011.72 1011.88 1011.80 1011.72 1011.72 1011.88 1011.96 1012.28 1012.40 1012.40 1012.48 1012.60 1013.04 1013.28 1013.32 1013.28 1013.32
1005.08 1005.12 1005.28 1005.24 1005.48 1005.40 1005.40 1005.48 1005.60 1005.68 1005.88 1005.96 1006.00 1006.20 1006.32 1006.40 1006.48 1006.56 1006.52 1006.68 1006.76 1006.76 1006.88 1007.24 1007.36 1007.16 1006.92 1006.76 1006.80 1006.72 1006.52 1006.56 1006.80 1007.12 1007.40 1007.64 1007.76 1008.04 1008.20 1008.44 1008.96 1008.84 1008.72 1009.08 1009.36 1009.48 1009.60 1010.00 1010.32 1010.16 1010.32 1010.80 1011.16 1011.24 1011.52 1010.92 1011.16 1011.44 1011.80 1011.64 1011.60 1011.60 1011.68 1011.80 1011.96 1012.08 1012.20 1012.20 1012.44 1012.84 1012.80 1012.84 1012.84 1013.04
1005.00 1004.92 1005.04 1005.16 1005.24 1005.32 1005.40 1005.48 1005.52 1005.60 1005.68 1005.76 1005.84 1005.92 1006.00 1006.16 1006.16 1006.20 1006.36 1006.40 1006.40 1006.60 1006.56 1006.52 1006.64 1006.64 1006.32 1006.00 1006.08 1006.20 1006.60 1006.36 1006.56 1007.04 1007.28 1007.36 1007.68 1007.96 1008.40 1008.64 1008.92 1008.76 1008.72 1008.84 1009.08 1009.28 1009.52 1009.88 1010.20 1010.20 1010.40 1010.48 1010.84 1010.88 1010.80 1011.44 1011.32 1011.48 1011.44 1011.72 1011.92 1011.60 1011.60 1011.64 1011.72 1011.96 1012.12 1012.24 1012.40 1012.44 1012.48 1012.24 1012.36 1012.24
1004.96 1005.00 1005.04 1005.12 1005.28 1005.28 1005.32 1005.40 1005.40 1005.40 1005.32 1005.44 1005.60 1005.72 1005.88 1005.88 1005.60 1005.52 1005.72 1006.00 1006.12 1006.08 1005.80 1005.72 1005.80 1005.72 1005.72 1005.72 1005.92 1006.16 1006.08 1006.36 1006.96 1007.16 1007.52 1007.84 1008.24 1008.60 1008.88 1009.04 1009.16 1008.80 1008.72 1008.80 1008.92 1009.16 1009.40 1009.76 1009.96 1010.16 1010.44 1010.44 1010.36 1010.84 1010.80 1011.04 1011.24 1011.08 1011.20 1011.28 1011.44 1011.56 1011.44 1011.56 1011.68 1011.76 1012.00 1012.20 1012.20 1012.20 1012.08 1012.00 1012.00 1012.08
1004.92 1004.88 1004.92 1004.92 1004.96 1005.00 1004.92 1005.00 1004.96 1005.00 1004.92 1005.04 1005.08 1005.12 1005.16 1005.32 1005.32 1005.24 1005.16 1005.16 1005.28 1005.36 1005.40 1005.32 1005.16 1005.00 1005.04 1005.28 1005.84 1006.00 1006.24 1006.60 1006.72 1006.84 1007.52 1007.88 1008.20 1008.68 1008.80 1009.04 1009.32 1009.32 1009.16 1008.96 1008.96 1009.12 1009.36 1009.60 1009.80 1009.96 1010.60 1010.56 1010.40 1010.64 1010.84 1010.88 1011.32 1011.28 1011.20 1011.16 1011.48 1012.00 1011.88 1011.60 1011.72 1011.84 1011.96 1012.08 1012.08 1012.12 1012.04 1012.00 1011.96 1012.00
1004.44 1004.44 1004.52 1004.68 1004.76 1004.72 1004.80 1004.76 1004.68 1004.60 1004.48 1004.40 1004.36 1004.32 1004.24 1004.32 1004.48 1004.68 1004.68 1004.64 1004.56 1004.52 1004.56 1004.68 1004.84 1005.04 1005.16 1005.52 1005.72 1006.00 1006.20 1006.44 1006.72 1006.92 1007.48 1007.76 1007.84 1008.08 1008.48 1009.16 1009.56 1009.60 1009.68 1009.56 1009.44 1009.44 1009.52 1009.64 1009.92 1010.04 1010.20 1010.40 1010.80 1010.96 1010.92 1011.08 1011.16 1011.08 1011.28 1011.28 1011.24 1010.92 1010.96 1011.28 1011.64 1011.80 1011.80 1011.88 1011.92 1012.04 1011.96 1011.72 1011.64 1011.56
1004.12 1004.32 1004.48 1004.52 1004.56 1004.56 1004.48 1004.32 1004.24 1004.12 1004.08 1004.04 1003.96 1003.96 1003.88 1003.88 1003.96 1004.08 1004.28 1004.56 1004.44 1004.24 1004.40 1004.64 1004.88 1005.16 1005.36 1005.40 1005.28 1005.64 1006.04 1006.36 1006.72 1006.84 1007.16 1007.36 1007.72 1008.08 1008.32 1009.04 1009.48 1009.68 1010.00 1010.08 1009.84 1009.80 1009.76 1009.84 1009.80 1009.96 1010.12 1010.24 1010.28 1010.56 1011.00 1011.60 1011.36 1010.92 1011.16 1011.40 1011.08 1011.00 1010.92 1010.88 1011.28 1011.72 1011.68 1011.84 1011.72 1011.52 1011.92 1011.52 1011.24 1011.16
1004.36 1004.48 1004.56 1004.48 1004.36 1004.28 1004.20 1004.16 1004.12 1004.00 1003.92 1003.92 1003.92 1003.84 1003.80 1003.84 1003.84 1003.84 1003.88 1003.84 1003.80 1003.80 1003.92 1004.04 1004.32 1004.60 1004.96 1005.36 1005.48 1005.52 1005.88 1006.28 1006.52 1006.68 1006.88 1007.36 1007.56 1008.20 1008.64 1009.08 1009.28 1009.20 1009.56 1009.84 1009.88 1009.88 1010.04 1010.08 1010.08 1010.16 1010.20 1010.32 1010.12 1010.32 1010.56 1010.68 1010.96 1010.72 1010.48 1010.68 1010.80 1010.96 1010.88 1010.72 1010.96 1011.36 1011.48 1011.32 1011.32 1011.48 1011.64 1011.72 1011.52 1011.48
1004.52 1004.36 1004.36 1004.16 1004.00 1003.96 1003.92 1003.96 1003.84 1003.84 1003.88 1003.92 1004.00 1004.00 1003.92 1003.80 1003.76 1003.68 1003.60 1003.56 1003.56 1003.68 1003.72 1003.84 1003.92 1004.16 1004.60 1005.08 1005.32 1005.68 1005.80 1006.00 1006.32 1006.64 1006.88 1007.20 1007.68 1008.12 1008.52 1008.88 1009.08 1009.24 1009.48 1009.72 1009.88 1009.88 1010.00 1010.32 1010.44 1010.76 1010.92 1010.84 1010.92 1010.76 1010.44 1010.84 1010.68 1010.72 1010.80 1010.68 1010.52 1010.72 1010.96 1010.56 1010.84 1011.16 1011.24 1011.44 1011.36 1011.68 1011.68 1011.76 1012.20 1012.16
1004.12 1003.92 1003.88 1003.72 1003.64 1003.72 1003.88 1003.88 1003.80 1003.80 1003.84 1003.88 1003.84 1003.92 1004.08 1004.00 1003.72 1003.56 1003.40 1003.08 1003.04 1003.20 1003.36 1003.72 1003.96 1004.20 1004.48 1004.80 1005.04 1005.28 1005.64 1005.92 1006.28 1006.68 1007.12 1007.52 1007.88 1008.16 1008.24 1008.44 1008.76 1009.00 1009.08 1009.40 1009.64 1009.64 1009.84 1010.20 1010.48 1010.88 1011.16 1011.16 1011.16 1011.56 1011.56 1010.88 1011.08 1010.96 1010.76 1010.96 1010.72 1010.76 1010.80 1011.04 1010.92 1011.08 1011.28 1011.28 1011.56 1011.76 1012.08 1012.40 1012.48 1012.52
1003.72 1003.52 1003.52 1003.48 1003.40 1003.60 1003.64 1003.60 1003.72 1003.80 1003.68 1003.72 1003.76 1003.84 1003.96 1004.04 1004.08 1003.80 1003.32 1003.00 1003.12 1003.20 1003.20 1003.60 1003.88 1004.04 1004.24 1004.56 1004.92 1005.24 1005.56 1005.92 1006.36 1006.64 1007.04 1007.40 1007.64 1007.88 1008.20 1008.48 1008.80 1008.92 1009.04 1009.04 1009.24 1009.56 1009.80 1010.16 1010.08 1010.32 1010.56 1010.56 1010.72 1011.16 1011.52 1011.04 1011.32 1011.32 1011.32 1010.96 1011.08 1010.88 1011.20 1011.32 1011.36 1011.44 1011.20 1011.20 1011.64 1011.68 1012.04 1012.24 1012.76 1012.68
1003.44 1003.24 1003.36 1003.32 1003.32 1003.32 1003.32 1003.40 1003.48 1003.60 1003.56 1003.48 1003.68 1003.84 1003.72 1003.76 1003.96 1004.00 1003.72 1003.52 1003.56 1003.52 1003.56 1003.72 1003.88 1004.16 1004.48 1004.80 1005.12 1005.00 1005.16 1005.56 1006.00 1006.56 1006.96 1007.20 1007.48 1007.80 1008.04 1008.44 1008.72 1008.84 1008.96 1009.12 1009.32 1009.52 1009.56 1009.84 1010.04 1009.92 1009.76 1010.12 1010.20 1010.96 1011.72 1011.44 1011.28 1011.64 1011.96 1011.36 1011.04 1011.24 1011.12 1011.20 1011.36 1011.56 1011.72 1011.36 1011.68 1011.76 1011.68 1012.20 1012.88 1013.40
1003.24 1003.20 1003.20 1003.12 1003.12 1003.12 1003.20 1003.16 1003.24 1003.32 1003.00 1002.96 1003.40 1003.72 1003.56 1003.64 1003.88 1004.00 1003.96 1003.84 1003.80 1003.84 1003.84 1004.08 1004.28 1004.40 1004.72 1004.92 1005.08 1005.20 1005.20 1005.64 1006.36 1006.68 1007.00 1007.20 1007.36 1007.68 1007.96 1008.24 1008.56 1008.68 1008.92 1009.36 1009.40 1009.48 1009.52 1009.68 1009.72 1009.48 1009.36 1009.40 1009.72 1010.00 1010.52 1011.08 1011.84 1012.08 1012.36 1012.36 1011.96 1011.40 1011.24 1011.44 1011.52 1011.48 1011.72 1011.84 1011.80 1011.92 1012.52 1012.80 1013.20 1013.60
1002.92 1002.76 1002.72 1002.72 1002.80 1002.84 1002.88 1002.96 1003.12 1003.04 1002.88 1002.88 1003.00 1003.20 1003.44 1003.64 1003.72 1003.92 1004.12 1004.16 1004.24 1004.28 1004.24 1004.28 1004.48 1004.84 1005.08 1005.12 1005.36 1005.28 1005.44 1005.92 1006.36 1006.72 1006.96 1007.20 1007.40 1007.52 1007.72 1007.96 1008.28 1008.52 1008.88 1009.20 1009.48 1009.48 1009.48 1009.44 1009.36 1009.36 1009.28 1009.32 1009.40 1009.16 1009.48 1010.52 1011.44 1011.84 1012.32 1012.84 1012.88 1012.60 1012.36 1011.76 1011.76 1011.60 1011.68 1011.56 1011.52 1012.00 1012.88 1013.08 1013.48 1013.60
1002.88 1002.80 1002.68 1002.56 1002.60 1002.64 1002.80 1002.84 1002.88 1002.92 1002.92 1002.88 1002.92 1003.12 1003.24 1003.40 1003.56 1003.72 1004.00 1004.24 1004.40 1004.64 1004.68 1004.60 1004.76 1005.08 1005.28 1005.28 1005.32 1005.36 1005.64 1005.92 1006.24 1006.52 1006.84 1007.16 1007.48 1007.60 1007.72 1007.92 1008.36 1008.56 1008.92 1009.20 1009.12 1009.12 1009.16 1008.84 1008.80 1008.84 1008.96 1009.32 1009.44 1009.56 1010.40 1011.36 1012.04 1012.44 1012.76 1013.20 1013.44 1013.16 1012.88 1012.64 1012.44 1012.24 1012.24 1012.00 1011.72 1012.00 1012.32 1012.68 1013.24 1013.24
1003.28 1002.80 1002.36 1002.32 1002.44 1002.52 1002.56 1002.68 1002.56 1002.72 1002.80 1002.92 1003.00 1003.24 1003.32 1003.44 1003.52 1003.76 1003.96 1004.20 1004.24 1004.36 1004.52 1004.68 1004.80 1004.96 1005.12 1005.12 1005.24 1005.36 1005.60 1006.00 1006.36 1006.60 1006.88 1007.08 1007.44 1007.64 1007.80 1007.88 1008.20 1008.28 1008.32 1008.60 1008.72 1008.60 1008.36 1008.52 1008.76 1009.00 1009.36 1009.64 1010.00 1010.64 1011.16 1011.28 1011.68 1012.44 1012.96 1013.16 1013.44 1013.64 1013.48 1013.32 1013.28 1013.32 1013.24 1012.96 1012.48 1012.36 1012.48 1012.76 1012.96 1013.24
1002.44 1002.20 1002.08 1002.08 1002.28 1002.52 1002.56 1002.64 1002.60 1002.52 1002.60 1002.64 1002.76 1003.00 1003.16 1003.28 1003.52 1003.72 1003.72 1003.96 1004.12 1004.08 1004.20 1004.48 1004.56 1004.68 1004.80 1004.92 1005.12 1005.32 1005.68 1006.04 1006.16 1006.40 1006.52 1006.72 1006.96 1007.40 1007.76 1007.80 1007.76 1007.84 1007.76 1007.96 1007.92 1008.12 1008.56 1008.72 1008.92 1009.32 1009.52 1009.84 1010.16 1010.16 1010.76 1010.80 1011.40 1012.32 1012.68 1012.84 1013.16 1013.24 1013.48 1013.60 1013.68 1013.72 1013.76 1013.84 1013.76 1013.80 1013.72 1013.28 1013.12 1013.76
1001.92 1001.76 1001.80 1002.04 1002.40 1002.52 1002.52 1002.44 1002.44 1002.28 1002.32 1002.52 1002.68 1002.84 1002.88 1003.16 1003.44 1003.44 1003.40 1003.56 1003.64 1003.64 1003.64 1003.88 1004.20 1004.40 1004.60 1004.76 1004.88 1005.04 1005.20 1005.48 1005.72 1006.08 1006.36 1006.56 1006.80 1007.00 1007.28 1007.28 1007.32 1007.52 1007.52 1007.76 1008.24 1008.48 1008.56 1008.76 1008.96 1009.12 1009.64 1009.92 1009.80 1010.08 1010.28 1010.92 1011.80 1011.96 1012.32 1012.76 1013.04 1013.24 1013.56 1013.60 1013.72 1013.88 1014.08 1014.32 1014.48 1014.32 1014.04 1013.88 1013.92 1014.08
1001.36 1001.32 1001.52 1001.92 1002.08 1002.12 1002.36 1002.52 1002.64 1002.48 1002.40 1002.32 1002.44 1002.56 1002.72 1002.84 1003.04 1003.16 1003.32 1003.44 1003.48 1003.52 1003.72 1003.80 1003.88 1004.00 1004.24 1004.52 1004.72 1005.00 1005.08 1005.24 1005.44 1005.72 1005.92 1006.20 1006.52 1006.80 1006.96 1007.12 1007.36 1007.52 1007.68 1007.96 1008.44 1008.76 1008.84 1008.92 1008.92 1008.96 1009.28 1009.36 1009.44 1009.68 1009.84 1010.40 1011.40 1012.00 1012.44 1012.92 1013.56 1013.96 1014.16 1014.32 1014.56 1014.84 1014.96 1015.12 1015.24 1015.04 1014.80 1014.72 1014.80 1015.04
Wind_Speed
12 12 13 10 10 9 9 9 8 7 6 6 7 7 6 5 6 6 6 5 5 4 4 4 4 4 1 2 3 5 6 5 7 7 8 8 7 14 18 17 17 17 17 16 16 17 18 18 18 18 17 17 18 18 18 17 17 17 17 16 16 16 15 13 11 11 11 10 10 9 9 10 10 10
11 12 12 11 11 10 10 10 9 8 7 8 8 7 7 6 6 6 6 6 5 5 4 4 2 3 4 4 4 5 5 8 6 6 6 6 7 8 16 14 15 16 16 16 16 16 16 17 17 18 17 17 17 18 17 17 16 16 16 17 17 16 15 13 11 10 11 10 9 9 10 10 9 9
11 12 13 12 11 10 11 10 10 10 9 8 8 8 7 7 7 6 5 7 5 5 4 3 3 3 3 4 5 5 5 6 6 5 6 7 7 7 10 13 14 14 15 15 15 15 16 17 17 17 17 16 16 16 16 16 16 16 16 16 16 16 14 12 10 10 9 9 10 10 9 9 9 10
11 12 13 12 11 10 10 10 10 10 10 9 9 8 8 7 7 6 6 7 8 6 6 5 5 6 6 6 6 6 6 5 8 6 7 6 6 7 8 14 15 14 15 14 14 14 14 15 16 16 16 16 16 15 15 14 15 15 15 15 15 15 13 11 9 8 9 10 10 10 10 10 10 10
12 11 11 12 12 11 11 10 10 11 10 10 9 9 8 8 8 7 7 8 8 7 6 6 5 5 6 7 6 6 6 6 6 7 7 7 7 7 7 8 16 16 15 15 14 14 14 14 14 15 15 15 15 15 14 14 13 14 14 14 14 13 12 11 9 9 10 11 10 10 10 11 10 10
11 11 11 12 12 12 12 12 11 10 11 10 10 10 9 8 8 8 8 8 7 7 5 6 5 6 4 6 5 6 5 5 5 6 5 6 6 7 6 7 6 17 14 15 14 14 14 14 14 14 15 15 15 15 14 13 13 13 12 12 13 12 11 10 10 9 10 11 11 11 11 11 10 9
12 12 12 12 12 11 12 12 11 12 12 10 11 10 9 9 9 8 8 7 8 8 7 6 7 6 5 5 5 4 4 5 5 6 7 6 6 6 7 7 5 13 14 13 13 13 13 13 13 13 14 15 15 14 13 12 12 12 12 13 13 13 11 10 10 11 11 11 12 12 12 11 10 10
10 11 12 13 13 12 12 11 11 10 10 9 9 11 10 9 10 8 8 8 8 8 8 6 7 5 6 5 6 5 5 5 6 6 6 7 8 7 7 7 8 9 14 12 12 12 13 13 13 13 14 14 13 12 12 11 11 11 11 12 13 13 12 12 12 11 10 10 11 11 11 11 11 10
10 12 13 13 13 12 12 11 12 11 12 10 10 11 10 9 9 8 8 8 8 8 8 7 6 6 6 6 6 5 6 6 7 7 7 7 7 7 7 6 6 6 12 10 12 12 13 13 13 13 13 13 12 12 11 11 11 11 11 12 12 11 11 11 9 10 9 9 10 10 10 10 9 8
12 11 10 10 10 9 7 6 8 9 11 9 10 11 10 10 9 8 8 8 8 9 9 8 7 6 7 6 6 6 6 7 7 7 7 7 7 7 8 8 6 6 5 6 8 10 11 13 14 14 13 13 12 11 11 10 11 11 11 12 11 10 9 8 7 9 10 12 12 11 10 10 10 9
11 10 11 11 11 10 10 11 12 12 8 8 14 12 11 11 11 10 9 9 9 9 9 9 9 8 7 6 6 6 7 7 7 7 7 7 6 6 7 7 6 6 7 9 8 8 5 2 8 13 14 12 12 12 10 10 11 10 11 11 11 8 8 10 11 12 12 12 12 11 11 10 9 8
12 11 14 13 12 11 11 11 12 13 10 11 11 12 11 11 11 11 11 10 9 9 9 9 8 8 7 6 7 6 6 7 7 7 7 8 7 7 6 7 7 6 7 7 6 8 9 7 6 6 11 13 12 12 10 11 10 11 10 10 11 11 12 13 13 12 12 11 10 10 10 10 8 7
13 15 15 13 13 13 13 15 14 14 10 10 11 11 11 11 11 10 11 9 8 8 9 9 8 8 8 8 7 7 8 8 8 5 7 7 7 6 7 7 7 6 7 7 8 8 7 7 8 8 7 8 12 11 12 9 13 12 11 11 12 13 11 11 11 11 10 9 9 9 9 8 7 6
13 14 13 12 14 13 15 15 15 13 12 11 11 9 9 11 10 9 9 10 9 9 9 9 9 9 9 9 8 8 8 7 6 7 7 8 7 7 7 7 6 6 7 7 7 7 6 7 7 6 7 4 8 5 7 8 6 12 13 11 11 12 11 11 10 9 8 8 9 8 7 6 7 7
14 15 14 13 14 14 13 13 15 15 16 15 15 14 13 9 9 10 11 11 11 9 7 9 9 9 10 9 8 8 7 7 7 6 6 7 7 7 7 7 6 7 6 5 7 6 6 5 6 5 5 6 6 6 2 9 9 9 9 9 9 10 10 9 8 7 7 7 6 6 6 6 6 6
15 14 11 11 11 12 14 15 14 15 17 17 17 17 17 17 16 13 10 9 10 11 10 9 9 9 8 9 7 7 7 7 7 6 6 6 7 7 7 6 3 3 5 5 6 6 4 4 5 5 5 4 4 5 7 7 7 6 6 5 6 7 7 7 7 8 7 7 6 6 6 6 6 6
11 9 12 11 11 11 16 15 14 14 15 18 19 18 18 19 18 17 16 13 11 8 9 8 7 8 8 9 9 8 7 5 6 5 6 5 5 6 9 5 2 7 7 6 6 7 6 5 6 6 4 5 3 5 7 6 5 4 2 3 5 6 6 7 7 7 7 7 7 6 6 6 7 7
12 9 9 8 12 12 13 14 14 14 14 13 15 15 15 15 17 19 20 19 19 15 10 10 11 7 4 8 9 9 6 7 7 7 6 5 5 8 9 8 7 6 7 6 4 5 6 7 7 7 3 2 3 5 7 7 3 1 3 5 6 6 7 7 7 6 7 6 6 7 7 8 7 7
10 10 8 10 12 14 13 12 14 14 14 13 13 14 15 16 14 15 16 17 15 14 14 12 10 7 6 8 9 12 8 7 6 6 6 5 4 2 3 3 5 8 5 5 1 5 6 5 5 5 1 4 3 5 7 6 3 3 4 5 6 7 7 7 7 8 8 8 8 8 8 8 8 8
10 8 8 10 12 15 13 13 13 13 13 14 14 14 15 15 14 14 14 15 15 15 14 13 11 10 10 10 10 12 8 6 6 5 6 5 4 5 5 6 5 6 3 3 5 7 7 4 7 3 4 4 4 5 6 7 6 4 5 6 6 7 8 9 8 8 9 10 9 9 9 9 9 8
10 8 10 12 14 16 13 12 10 11 10 12 13 14 14 13 13 13 11 14 16 15 14 14 14 13 13 17 16 9 6 6 4 5 4 7 5 6 8 7 7 7 4 3 5 3 7 5 4 4 4 3 3 4 6 6 7 5 6 6 6 7 8 8 9 8 8 9 9 9 9 8 8 9
11 11 16 17 15 13 13 9 7 10 11 13 11 11 12 12 13 13 11 9 9 13 12 11 11 11 11 10 9 9 10 8 6 7 9 7 4 7 7 8 7 5 3 4 3 1 5 4 8 7 4 4 3 3 6 5 6 6 6 6 6 6 7 8 8 8 8 8 7 7 7 8 8 7
9 8 13 18 14 12 14 9 9 10 11 12 12 11 8 9 13 12 11 11 11 10 11 11 11 10 9 9 9 10 11 11 12 11 9 8 8 9 8 7 7 7 7 5 6 4 6 6 5 3 3 4 4 4 6 5 5 4 4 4 4 5 5 5 6 7 7 7 5 4 3 5 6 6
10 8 11 10 13 16 13 11 10 11 13 14 12 6 7 12 15 9 10 11 10 9 11 11 13 15 14 13 11 11 11 12 13 13 10 8 8 8 6 6 7 9 4 0 8 8 3 6 6 5 4 5 3 4 4 4 4 5 5 5 4 4 5 6 4 4 6 7 6 5 5 5 5 5
11 8 5 8 8 11 15 14 13 12 13 13 11 9 10 12 11 5 5 7 13 11 9 8 12 10 9 9 10 10 10 10 10 11 11 9 8 8 7 5 6 6 7 3 8 5 6 5 4 3 3 4 5 3 4 5 5 5 5 6 5 5 4 4 4 4 4 4 6 6 4 3 4 5
11 9 6 5 8 11 13 15 14 14 12 14 10 12 13 11 11 8 7 5 5 6 8 10 12 9 8 8 10 11 10 10 11 10 10 9 10 7 5 6 6 5 5 4 7 2 6 3 3 3 3 4 5 5 5 4 4 4 4 3 3 6 5 5 5 6 6 5 4 4 4 5 4 3
10 8 7 10 11 14 15 13 13 12 12 10 10 12 11 11 10 8 8 6 6 8 8 8 10 9 10 9 11 11 10 10 9 9 9 9 9 7 5 7 8 5 5 8 7 8 6 4 4 5 5 6 5 4 5 4 3 4 3 3 3 5 5 5 5 5 5 6 4 8 5 7 7 5
10 8 8 6 5 6 11 12 12 13 12 10 12 11 12 12 11 8 9 8 10 9 8 6 7 8 9 10 9 10 10 10 9 8 8 9 9 9 7 7 4 5 5 7 8 8 6 4 3 5 5 4 5 4 4 3 4 6 5 5 5 5 4 4 4 4 3 3 5 4 5 5 6 5
7 5 4 5 3 4 3 7 8 8 10 11 11 12 12 12 11 9 9 11 9 9 11 11 9 10 12 11 7 4 9 8 7 6 7 6 5 3 0 3 4 5 4 4 6 5 4 4 4 4 3 3 4 2 2 1 2 3 4 6 5 5 5 3 3 4 4 4 5 5 5 4 5 5
9 8 8 7 5 5 4 4 5 6 7 9 12 12 11 9 11 12 12 11 11 11 12 12 12 13 10 8 6 11 9 7 7 9 7 7 6 5 5 7 6 6 4 5 4 4 4 4 3 2 3 2 2 1 3 3 4 4 4 2 4 5 4 3 3 2 3 3 3 3 2 2 1 3
8 8 8 8 9 9 9 8 8 10 9 9 10 9 11 10 10 10 11 12 12 12 11 11 12 11 9 6 6 6 6 8 8 7 6 6 8 7 6 6 6 6 4 4 3 3 3 4 4 5 3 2 3 1 1 2 1 2 2 1 1 4 5 4 3 4 3 3 3 3 3 2 3 3
6 7 7 8 7 7 7 8 9 10 11 11 11 10 11 12 12 14 17 17 12 13 12 10 7 5 4 6 7 8 8 6 6 6 8 8 9 10 9 7 7 6 6 4 4 3 2 2 3 2 3 3 3 3 1 1 3 3 3 2 4 3 4 3 4 4 4 4 4 4 2 3 3 5
4 4 5 5 6 7 8 8 7 7 8 10 9 12 12 11 12 12 12 12 12 12 9 9 7 8 7 7 10 9 8 7 7 7 9 7 7 7 6 6 5 6 6 6 5 5 4 4 4 3 3 3 3 3 2 4 3 4 5 6 4 4 3 4 5 5 4 3 3 4 4 2 2 2
4 5 5 6 7 8 8 7 7 6 6 6 7 7 7 8 10 10 10 11 12 10 10 9 10 8 6 6 6 6 6 8 8 9 8 8 8 7 6 6 7 6 6 7 7 6 5 5 4 4 4 2 2 2 4 3 5 4 4 3 4 3 3 3 4 6 5 3 2 3 4 3 3 3
5 6 7 7 7 6 6 6 4 4 5 4 5 6 5 8 8 9 10 9 8 10 10 8 7 7 7 7 8 7 8 9 9 8 7 8 7 7 7 7 7 7 7 7 7 7 6 6 5 5 4 4 4 2 3 4 3 5 3 4 3 4 5 3 5 4 3 3 1 1 2 4 4 4
6 7 7 8 7 6 6 4 3 3 3 3 4 3 4 6 7 7 9 8 9 8 7 7 8 9 9 8 8 9 9 9 8 9 8 8 7 6 6 5 6 6 7 7 7 7 7 7 7 7 6 7 6 6 3 5 8 7 1 5 2 3 4 4 2 4 3 2 2 1 1 3 4 6
7 6 6 7 5 5 5 4 3 3 4 3 2 2 3 1 4 5 2 3 5 7 7 7 8 7 7 6 9 7 8 9 9 10 9 8 7 7 6 6 7 7 7 7 7 7 7 7 6 6 7 7 7 6 7 4 10 13 8 2 5 3 4 3 3 4 2 2 2 1 2 3 5 6
7 5 6 6 6 6 5 4 3 4 5 4 3 2 2 0 1 4 5 1 2 2 4 4 5 5 4 4 1 7 13 10 11 10 8 8 7 7 7 8 8 7 7 6 7 6 6 6 6 7 7 7 6 7 8 6 5 7 17 8 3 4 2 2 3 3 3 2 2 2 2 5 8 8
6 6 6 6 5 6 6 5 5 5 6 3 4 4 2 2 2 1 1 2 4 5 5 6 5 5 6 5 6 6 9 11 9 8 7 7 7 7 7 8 8 8 8 8 7 6 5 6 7 8 6 6 4 7 8 8 6 5 12 18 8 2 3 1 1 2 2 2 3 6 9 10 13 16
7 6 6 6 6 5 6 5 4 5 5 4 4 4 3 3 4 4 2 2 3 3 5 6 7 5 6 7 6 7 8 8 8 7 7 7 7 8 9 8 8 9 7 7 7 7 8 8 8 7 5 3 7 7 8 9 9 7 8 14 18 9 6 4 2 2 2 1 1 4 8 8 7 6
6 6 5 5 5 5 5 4 5 5 5 4 3 2 3 4 4 3 4 3 4 4 3 5 6 6 6 7 7 7 8 7 8 8 8 8 7 7 8 7 7 7 8 8 9 9 9 7 6 8 4 6 6 8 8 7 7 6 7 9 13 17 18 14 8 6 6 7 3 1 2 3 5 6
6 6 5 5 5 5 4 4 4 4 4 4 5 5 4 5 5 7 5 5 5 6 6 6 6 7 8 7 7 6 7 8 8 8 8 9 9 9 8 8 8 8 9 9 9 8 7 8 7 6 5 5 6 6 7 7 8 7 7 7 8 12 17 19 21 17 12 8 7 5 3 5 5 4
7 6 5 5 4 4 3 3 3 4 4 5 5 5 5 6 7 7 6 6 6 7 8 8 8 8 8 8 9 9 9 9 10 10 10 10 11 10 10 9 9 9 9 8 7 7 7 6 6 6 6 6 6 7 7 7 9 9 8 7 8 8 10 15 18 19 20 19 16 10 6 3 2 3
8 6 5 5 5 4 5 5 5 5 5 5 6 6 6 7 8 7 7 7 7 7 7 8 9 8 9 9 9 9 9 9 9 9 9 9 9 9 9 9 9 8 7 7 7 7 7 7 7 7 7 7 7 6 6 9 10 8 8 8 7 7 8 7 8 11 14 17 16 14 18 20 18 17
6 5 5 6 6 4 3 3 5 5 5 6 6 6 6 7 7 8 7 7 6 6 6 7 7 8 9 9 9 9 8 8 9 8 8 8 9 8 8 8 8 8 8 8 7 7 6 6 6 6 6 6 5 5 4 6 10 10 9 10 9 8 7 6 7 8 8 8 12 14 16 17 16 14
Wind_Direction
230 231 234 240 241 240 241 246 243 238 242 237 233 233 239 241 263 273 275 265 269 243 250 250 176 252 179 212 237 213 225 211 164 211 226 225 241 186 199 202 211 217 221 227 229 231 233 236 240 242 243 243 242 241 240 243 246 247 251 251 250 250 252 253 249 235 237 240 236 227 231 242 246 247
230 231 229 230 238 238 241 241 242 244 234 236 236 233 227 227 242 258 272 278 281 278 248 262 220 195 235 202 216 253 246 115 194 236 227 233 233 173 193 201 209 214 219 223 227 229 233 235 236 238 239 241 242 242 243 244 246 247 246 249 248 247 249 248 243 230 229 225 221 221 230 234 239 243
229 227 231 233 240 241 239 238 240 242 240 236 237 237 228 230 235 242 249 266 259 279 284 253 230 237 232 248 246 245 246 166 198 242 242 232 222 197 196 199 207 214 216 222 225 228 231 234 235 235 236 238 238 241 243 244 246 245 245 245 245 245 245 242 241 236 216 204 210 216 220 228 236 243
226 227 228 230 235 238 247 252 247 240 239 240 237 231 236 235 232 235 242 251 268 270 280 277 245 225 230 220 253 253 243 142 177 250 245 235 164 214 233 194 206 207 215 217 225 227 232 235 236 237 237 236 238 240 242 241 241 240 239 238 239 241 239 238 235 213 198 205 209 213 219 226 233 241
228 226 229 231 230 234 240 245 245 245 239 236 238 241 235 234 228 223 226 247 258 259 260 269 267 257 259 252 245 260 254 234 219 223 250 246 242 236 237 229 194 205 207 215 218 223 228 231 234 237 238 239 240 242 242 241 239 235 232 232 234 235 234 233 228 207 199 207 208 212 220 227 234 238
231 225 224 228 232 232 239 242 245 246 245 236 238 232 235 241 239 232 237 240 254 262 254 261 266 279 262 259 248 257 264 267 268 256 250 249 251 257 264 257 215 193 205 212 215 223 226 228 232 233 237 241 242 242 243 241 238 231 226 227 230 232 232 231 225 210 202 209 208 213 221 226 226 232
219 225 226 227 231 234 235 236 242 244 244 240 239 239 236 238 240 241 237 243 248 253 257 254 258 251 238 246 253 236 237 245 253 256 254 262 249 242 249 252 262 173 202 205 216 222 224 229 231 233 237 241 241 244 245 241 236 230 224 224 226 229 229 225 218 212 211 209 213 216 221 225 229 236
218 223 228 229 229 233 236 238 240 240 245 249 247 247 240 240 245 246 244 229 241 253 259 251 262 264 264 239 235 238 231 239 238 240 248 231 251 254 239 239 258 184 189 199 213 218 223 226 228 229 235 236 239 241 241 241 238 231 225 225 227 229 226 225 219 219 218 218 218 220 223 229 235 235
216 216 218 224 228 229 235 232 230 234 237 233 238 240 240 239 241 243 244 242 235 241 249 254 251 257 251 246 245 233 246 234 228 234 244 256 254 246 251 260 246 135 192 200 212 218 222 228 227 230 230 232 235 235 235 235 237 234 227 226 229 229 228 227 223 221 217 226 230 227 226 231 235 231
218 222 222 223 224 228 240 256 263 256 253 256 244 243 245 246 245 247 251 250 244 241 246 248 250 242 247 252 238 227 228 248 253 246 238 234 236 247 246 235 229 236 212 219 210 213 227 227 231 230 227 230 232 234 232 232 233 232 228 229 233 227 225 213 211 222 222 223 228 230 231 233 231 229
209 215 224 218 215 219 230 236 239 240 233 239 244 240 239 240 245 245 246 245 243 242 245 243 245 247 244 237 241 227 222 236 247 255 261 258 235 219 244 254 238 230 238 236 240 267 281 210 225 214 223 225 229 231 228 228 228 228 224 228 234 218 213 220 218 221 221 224 227 223 225 231 232 231
204 205 219 214 212 216 219 228 235 240 229 230 234 238 235 236 238 242 242 238 237 239 241 246 243 236 238 227 234 236 222 237 236 237 244 248 248 241 225 238 247 240 247 254 230 213 235 204 216 198 211 219 223 224 227 223 224 218 216 210 225 221 206 220 222 220 222 222 221 224 226 229 232 222
214 216 213 209 215 208 212 220 227 234 232 230 228 230 231 231 229 231 240 243 244 234 239 240 234 236 232 233 231 229 229 233 243 239 231 243 247 247 242 231 225 236 242 241 247 243 223 226 219 218 223 214 199 213 218 217 204 214 209 208 209 232 229 223 230 233 233 229 225 226 225 222 221 224
235 216 211 213 211 213 208 212 218 226 235 237 239 229 219 221 222 220 222 232 234 236 236 236 240 238 235 231 224 230 233 237 234 237 231 244 249 248 253 255 234 212 234 253 255 254 247 246 241 233 238 205 180 226 204 224 224 194 205 204 209 217 224 221 223 226 225 219 219 219 213 207 205 207
248 232 217 216 205 206 213 214 212 218 220 225 230 241 247 241 229 217 221 228 230 234 225 247 247 248 245 237 233 232 238 227 234 234 237 243 239 240 247 255 243 201 218 241 255 251 250 250 254 242 235 235 221 226 66 87 105 144 177 196 203 208 213 218 219 223 223 220 214 208 204 203 203 196
227 242 235 220 215 208 209 214 215 216 218 220 224 226 230 233 234 237 232 223 222 226 230 227 234 249 261 252 234 237 237 237 235 236 240 250 259 250 252 240 267 328 233 238 246 248 223 223 248 245 232 241 246 57 87 84 100 130 149 170 189 193 194 196 200 203 208 207 205 199 197 196 182 165
240 227 237 235 217 217 200 206 212 214 214 215 219 222 224 229 230 230 232 237 234 219 215 228 241 229 234 268 267 242 239 230 244 228 232 225 263 276 261 248 265 256 238 236 248 262 252 223 232 241 219 232 199 145 100 69 54 73 140 178 183 179 173 176 181 187 187 184 186 183 180 165 153 148
232 224 230 239 246 228 209 207 207 211 213 210 211 217 223 226 225 224 227 227 229 232 227 217 224 217 196 226 256 265 226 214 230 234 237 216 214 244 250 272 247 211 212 240 250 265 284 251 235 246 225 139 163 90 71 54 40 90 144 171 169 167 166 163 161 160 159 164 155 150 147 147 147 144
237 233 230 229 234 242 225 210 208 209 209 211 213 215 216 220 220 220 220 221 223 222 227 225 219 209 203 232 244 258 237 217 221 226 239 240 220 240 306 294 268 269 232 234 145 260 247 307 291 253 206 166 184 113 85 69 57 78 111 132 146 146 147 148 150 145 139 138 138 141 144 144 141 135
236 231 234 240 237 240 238 224 210 215 218 217 219 221 223 222 219 220 218 214 216 218 217 216 208 209 203 212 231 244 238 216 211 226 230 223 225 250 248 250 254 255 292 255 195 239 243 222 250 188 225 208 194 146 114 81 59 78 96 108 122 133 138 136 134 137 137 137 140 144 144 144 143 149
239 230 236 238 239 236 238 239 216 214 234 232 227 224 224 221 220 221 215 206 210 215 218 213 208 205 201 209 209 203 204 226 212 221 228 238 230 232 247 254 249 249 239 251 208 226 264 272 275 304 228 178 207 167 134 109 76 59 78 94 110 121 124 127 131 135 138 138 143 147 152 158 169 167
244 230 229 236 241 247 246 223 211 214 211 231 242 240 225 220 221 221 216 212 202 205 215 217 214 214 217 210 199 192 188 189 200 224 236 229 238 257 247 247 250 242 223 231 202 208 239 271 245 229 179 139 212 189 137 124 115 110 86 72 89 98 113 126 128 134 134 137 143 153 170 181 191 190
243 238 238 227 227 229 244 230 208 210 211 225 230 241 257 249 236 226 217 215 202 198 212 223 223 229 222 217 216 209 193 196 203 225 234 243 240 247 232 230 248 256 248 223 202 222 243 229 227 212 212 241 213 192 145 136 140 145 150 140 110 87 99 104 116 127 129 133 137 135 182 214 245 253
242 236 246 238 227 233 238 234 211 211 206 231 231 218 231 241 243 234 227 223 219 215 227 224 222 226 224 223 220 229 212 208 220 233 234 226 232 236 229 218 226 245 262 92 179 222 238 241 231 191 251 260 209 159 155 136 156 160 171 155 149 135 115 113 92 112 133 139 146 171 214 230 297 282
250 242 239 258 242 228 231 230 225 209 210 223 236 219 229 236 252 273 262 258 251 242 236 236 237 221 218 224 226 223 222 214 215 219 224 222 212 216 220 217 235 246 257 206 168 226 227 228 239 202 241 244 265 200 144 155 162 178 191 184 157 149 164 168 149 152 128 149 170 185 219 277 327 333
254 247 223 249 249 243 233 225 226 225 218 218 227 237 239 250 257 255 248 259 277 266 257 243 243 223 221 228 228 225 221 213 211 214 211 210 215 219 214 201 220 235 253 99 69 238 253 228 245 253 201 235 228 222 185 184 167 159 174 205 176 155 184 173 180 164 175 177 178 201 184 204 265 282
254 254 247 232 216 206 221 215 220 222 222 223 231 240 249 258 259 251 243 238 237 238 249 253 248 238 222 216 222 223 222 212 202 203 207 205 207 204 223 219 234 218 197 137 175 219 231 212 206 216 220 223 249 219 230 189 164 151 179 180 187 159 178 196 185 186 182 187 159 135 155 195 230 228
257 259 257 306 1 214 198 207 212 214 211 222 228 228 236 243 248 250 251 234 232 234 226 219 240 243 246 233 224 226 224 219 195 196 201 213 207 208 205 187 201 251 159 165 176 211 212 208 188 234 264 248 244 235 219 193 167 169 167 172 177 173 171 208 199 186 174 198 148 173 216 210 194 202
264 280 319 344 329 356 282 236 234 239 236 233 237 230 226 228 239 233 236 241 239 234 231 224 221 229 230 227 221 219 246 206 171 182 202 189 155 116 106 234 227 187 153 165 173 188 191 192 205 210 232 242 249 234 227 124 176 164 161 172 182 159 161 188 223 194 178 180 198 189 211 225 190 210
266 287 292 297 297 260 236 244 235 229 229 218 225 232 234 234 240 240 234 233 234 236 236 229 227 229 228 222 233 229 197 177 181 198 180 170 151 160 196 184 177 173 150 157 179 178 181 191 203 219 199 209 266 304 242 196 194 162 142 239 115 160 168 184 200 182 183 192 190 206 193 245 312 317
242 246 246 246 241 245 250 249 257 257 246 227 224 229 233 229 232 236 235 233 231 231 236 240 238 232 216 179 200 180 178 185 176 171 158 170 161 174 178 181 169 171 149 168 174 158 186 190 193 199 186 174 170 141 90 353 175 229 191 183 181 235 151 168 151 156 154 153 161 171 185 198 169 186
224 231 226 223 233 240 237 236 237 239 240 243 245 240 234 232 227 225 234 240 238 237 234 234 220 222 178 191 191 193 189 174 162 154 161 180 167 169 169 182 171 169 167 169 160 122 214 177 174 177 163 155 152 129 162 251 256 224 161 156 214 187 163 167 156 151 165 189 204 163 169 197 163 169
219 223 235 243 240 240 244 243 243 246 240 242 237 237 237 233 232 227 221 223 228 229 226 223 200 203 215 212 190 171 165 163 172 158 161 168 163 162 165 155 145 167 166 173 171 164 159 140 144 140 134 140 148 159 196 188 214 209 177 169 205 159 166 146 146 135 143 179 180 153 141 175 141 48
232 230 241 243 245 245 245 246 246 249 255 253 251 248 242 238 237 231 222 225 227 224 222 210 203 196 191 192 176 159 150 159 162 169 165 157 147 153 165 160 169 164 168 172 174 164 160 155 147 132 128 130 146 171 238 259 151 186 152 154 163 137 105 127 122 137 179 171 153 147 132 132 62 68
229 244 251 247 249 249 251 256 258 254 257 255 260 259 255 245 236 230 229 225 222 219 211 204 199 181 182 174 165 173 171 163 154 143 141 134 145 152 163 173 165 165 174 171 168 164 164 165 169 158 163 171 151 153 38 2 301 131 156 153 166 132 147 142 138 141 132 133 154 123 129 102 108 83
234 236 246 250 242 233 236 232 259 273 271 263 262 252 253 252 254 251 239 225 219 211 199 188 189 193 192 184 177 170 158 150 140 139 137 143 154 163 168 153 139 154 167 166 166 167 171 175 183 183 169 171 164 144 157 63 51 346 163 140 124 115 107 110 98 116 161 122 82 262 95 102 71 80
240 238 243 259 256 241 249 236 222 241 257 276 280 287 271 336 14 342 312 162 200 209 204 189 196 192 189 187 174 145 146 146 146 144 144 152 157 157 151 130 142 164 179 172 165 167 177 186 194 203 186 178 170 147 123 139 51 42 6 82 127 118 121 121 134 153 125 111 150 107 55 76 95 67
239 234 238 244 250 254 252 252 234 245 248 250 232 224 242 105 14 3 331 93 123 159 185 175 161 151 110 91 213 175 155 145 136 138 143 150 146 150 151 153 164 171 171 160 170 169 186 181 194 201 194 187 173 145 146 139 144 43 27 356 72 102 77 145 152 139 139 175 113 57 61 89 92 85
243 240 237 241 238 243 246 244 240 247 249 243 200 200 228 170 114 52 309 82 99 104 103 97 97 108 116 109 105 81 94 110 124 127 135 141 151 148 156 162 165 168 165 165 167 180 187 187 193 197 209 197 189 162 149 158 107 89 38 28 8 355 112 149 135 120 144 143 119 92 79 75 90 109
232 237 243 246 242 240 244 235 235 252 249 234 223 180 177 151 166 172 145 79 86 105 103 100 108 117 138 138 137 125 118 116 126 138 145 147 155 164 168 166 168 168 170 170 173 177 187 185 189 188 200 63 55 74 111 96 98 90 70 38 25 30 12 349 18 336 116 64 103 146 133 140 139 161
235 233 237 240 243 237 231 224 223 220 229 226 221 168 165 146 154 159 152 152 149 144 129 117 130 148 148 148 146 136 131 134 139 148 149 152 151 165 162 158 156 163 177 176 185 177 184 185 97 61 79 110 108 105 114 135 135 112 79 64 46 47 47 42 34 20 27 357 336 83 139 117 133 142
239 237 235 229 228 215 214 221 218 201 203 193 188 175 177 161 162 152 164 175 168 154 147 146 158 165 154 158 149 140 127 133 147 151 158 162 161 162 159 171 168 177 179 171 174 175 152 103 121 138 148 155 157 173 168 169 153 123 109 101 86 66 61 60 57 54 45 25 9 32 46 109 105 92
212 230 217 205 201 207 224 214 225 215 199 187 177 170 175 160 149 163 165 167 175 160 153 157 164 164 158 156 150 148 147 154 161 165 165 166 166 165 167 179 172 174 171 163 163 142 126 144 149 166 176 179 184 208 188 164 131 128 133 126 105 97 82 71 65 58 50 45 46 52 20 355 251 114
198 205 194 176 176 200 212 221 209 205 186 184 171 173 173 157 158 160 159 157 165 167 163 157 160 164 162 158 156 156 161 159 158 160 162 162 166 165 168 172 166 169 166 149 149 162 160 155 168 176 177 191 187 199 182 150 138 136 134 125 125 107 90 82 75 66 55 41 32 50 57 62 64 60
186 190 170 173 189 199 216 233 226 208 190 178 170 172 162 162 158 158 154 157 160 155 159 166 165 160 157 158 162 159 153 151 156 156 158 156 159 161 169 166 168 168 168 151 155 156 160 168 171 187 196 194 188 199 171 143 128 129 130 131 117 96 88 74 67 62 54 59 25 39 63 66 71 79